Weather History for Carmi, IL

Change the Weather History Date:

Wednesday, February 13, 2013

  Actual Average (KEVV) Record (KEVV)
Temperature  
Mean Temperature 42 °F 36 °F  
Max Temperature 49 °F 45 °F 79 °F (1962)
Min Temperature 34 °F 27 °F -13 °F (1899)
Degree Days  
Heating Degree Days 24 29  
Month to date heating degree days 396  
Since 1 July heating degree days 3175  
Cooling Degree Days 0 0  
Month to date cooling degree days 0  
Year to date cooling degree days 0  
Moisture  
Dew Point 35 °F    
Average Humidity 80    
Maximum Humidity 99    
Minimum Humidity 55    
Precipitation  
Precipitation 0.04 in 0.12 in 3.00 in (1946)
Month to date precipitation 1.52  
Year to date precipitation 4.62  
Snow  
Snow 0.00 in 0.20 in 0.80 in (1997)
Month to date snowfall 2.0  
Since 1 July snowfall 8.9  
Snow Depth -    
Sea Level Pressure  
Sea Level Pressure 29.88 in    
Wind  
Wind Speed 8 mph (WSW)    
Max Wind Speed 13 mph    
Max Gust Speed -    
Visibility 8 miles    
Events Rain , Snow    
T = Trace of Precipitation, MM = Missing Value Source: NWS Daily Summary

Daily Weather History Graph

Daily Weather History Graph

Search for Another Location

Airport:

Trip Planner

Search our weather history database for the weather conditions in past years. The results will help you decide how hot, cold, wet, or windy it might be!

Date:

Astronomy

Feb. 13, 2013 Rise Set
Actual Time 6:44 AM CST 5:29 PM CST
Civil Twilight 6:17 AM CST 5:56 PM CST
Nautical Twilight 5:46 AM CST 6:27 PM CST
Astronomical Twilight 5:16 AM CST 6:57 PM CST
Moon 8:18 AM CST (2/13) 9:26 PM CST (2/13)
Length of Visible Light 11h 38m
Length of Day
10h 44m
Waxing Crescent, 14% of the Moon is Illuminated
Feb 13
Waxing Crescent
Feb 17
First Quarter
Feb 25
Full
Mar 4
Last Quarter
Mar 11
New

Hourly Weather History & Observations

Time (CST) Temp. Windchill Dew Point Humidity Pressure Visibility Wind Dir Wind Speed Gust Speed Precip Events Conditions
12:15 AM 41.5 °F 37.1 °F 35.6 °F 79% 29.91 in 10.0 mi North 6.9 mph - N/A   Overcast
12:35 AM 41.9 °F 36.9 °F 34.5 °F 75% 29.90 in 10.0 mi North 8.1 mph - N/A   Overcast
12:55 AM 41.2 °F 36.0 °F 35.2 °F 79% 29.90 in 10.0 mi North 8.1 mph - N/A   Overcast
1:15 AM 41.0 °F 33.9 °F 34.5 °F 78% 29.88 in 10.0 mi North 12.7 mph - N/A   Overcast
1:35 AM 40.5 °F 34.1 °F 34.2 °F 78% 29.88 in 10.0 mi North 10.4 mph - N/A   Overcast
1:55 AM 40.3 °F 34.4 °F 34.3 °F 79% 29.87 in 10.0 mi North 9.2 mph - N/A   Overcast
2:15 AM 40.3 °F 34.4 °F 34.3 °F 79% 29.87 in 10.0 mi North 9.2 mph - N/A   Overcast
2:35 AM 40.3 °F 37.1 °F 34.0 °F 78% 29.87 in 10.0 mi North 4.6 mph - N/A   Overcast
2:55 AM 40.1 °F 34.1 °F 34.0 °F 79% 29.86 in 10.0 mi North 9.2 mph - N/A   Overcast
3:15 AM 40.1 °F 32.7 °F 33.4 °F 77% 29.85 in 10.0 mi NNW 12.7 mph - N/A   Overcast
3:35 AM 40.1 °F 33.6 °F 32.9 °F 75% 29.85 in 10.0 mi North 10.4 mph - N/A   Overcast
3:55 AM 40.1 °F 33.2 °F 32.7 °F 75% 29.86 in 10.0 mi NNW 11.5 mph - N/A   Overcast
4:15 AM 39.4 °F 32.3 °F 33.3 °F 79% 29.85 in 10.0 mi NNW 11.5 mph - N/A   Overcast
4:35 AM 39.2 °F 33.6 °F 33.1 °F 79% 29.86 in 10.0 mi North 8.1 mph - N/A   Overcast
4:55 AM 39.2 °F 34.2 °F 33.8 °F 81% 29.86 in 10.0 mi NW 6.9 mph - N/A   Light Drizzle
5:15 AM 38.7 °F 36.3 °F 33.8 °F 83% 29.86 in 7.0 mi NW 3.5 mph - N/A Rain Rain
5:35 AM 38.3 °F 33.9 °F 34.0 °F 84% 29.86 in 7.0 mi North 5.8 mph - 0.01 in Rain Light Rain
6:15 AM 37.4 °F 31.4 °F 33.6 °F 86% 29.87 in 7.0 mi North 8.1 mph - N/A Rain Rain
6:35 AM 36.5 °F 30.3 °F 33.8 °F 90% 29.88 in 7.0 mi North 8.1 mph - N/A Rain Rain
6:55 AM 35.1 °F 29.3 °F 33.3 °F 93% 29.88 in 4.0 mi NNE 6.9 mph - N/A Rain Light Rain
7:15 AM 34.3 °F 28.4 °F 33.4 °F 97% 29.89 in 1.8 mi North 6.9 mph - 0.01 in Snow Light Snow
7:35 AM 34.0 °F 29.8 °F 33.4 °F 98% 29.89 in 1.0 mi NNE 4.6 mph - 0.02 in Snow Light Snow
7:55 AM 34.0 °F 29.8 °F 33.6 °F 99% 29.89 in 0.8 mi North 4.6 mph - 0.03 in   Unknown
8:15 AM 34.0 °F 31.0 °F 33.8 °F 99% 29.90 in 0.8 mi North 3.5 mph - N/A   Unknown
8:35 AM 34.2 °F 31.2 °F 33.8 °F 99% 29.90 in 1.0 mi North 3.5 mph - N/A Rain Light Rain
8:55 AM 34.2 °F - 33.8 °F 99% 29.90 in 0.8 mi Calm Calm - N/A Rain Light Rain
9:15 AM 34.7 °F - 34.2 °F 98% 29.90 in 1.8 mi Calm Calm - N/A Rain Light Rain
9:35 AM 34.9 °F - 34.7 °F 99% 29.91 in 2.0 mi Calm Calm - N/A   Overcast
9:55 AM 35.4 °F - 34.9 °F 98% 29.91 in 1.5 mi Calm Calm - N/A   Overcast
10:15 AM 36.0 °F - 35.6 °F 99% 29.92 in 2.0 mi Calm Calm - N/A   Overcast
10:35 AM 37.6 °F 34.0 °F 36.7 °F 97% 29.92 in 2.5 mi WNW 4.6 mph - N/A   Overcast
10:55 AM 38.7 °F 36.3 °F 36.9 °F 93% 29.91 in 3.0 mi WSW 3.5 mph - N/A Rain Light Rain
11:15 AM 40.5 °F 36.5 °F 35.8 °F 83% 29.90 in 7.0 mi SW 5.8 mph - N/A   Mostly Cloudy
11:35 AM 41.9 °F 37.5 °F 35.8 °F 79% 29.90 in 10.0 mi WSW 6.9 mph - N/A   Scattered Clouds
11:55 AM 42.6 °F 39.0 °F 36.0 °F 77% 29.89 in 7.0 mi SSW 5.8 mph - N/A   Scattered Clouds
12:15 PM 43.5 °F 40.9 °F 35.8 °F 74% 29.88 in 7.0 mi SW 4.6 mph - N/A   Mostly Cloudy
12:35 PM 44.6 °F 43.1 °F 34.9 °F 69% 29.87 in 10.0 mi WSW 3.5 mph - N/A   Scattered Clouds
12:55 PM 45.5 °F 41.8 °F 35.6 °F 68% 29.87 in 10.0 mi SW 6.9 mph - N/A   Scattered Clouds
1:15 PM 46.9 °F - 35.4 °F 64% 29.87 in 10.0 mi West 5.8 mph - N/A   Scattered Clouds
1:35 PM 47.5 °F - 34.5 °F 61% 29.86 in 10.0 mi West 8.1 mph - N/A   Scattered Clouds
1:55 PM 48.0 °F - 34.7 °F 60% 29.86 in 10.0 mi SW 9.2 mph - N/A   Scattered Clouds
2:15 PM 47.1 °F - 35.4 °F 64% 29.86 in 10.0 mi SW 10.4 mph - N/A   Scattered Clouds
2:35 PM 48.2 °F - 35.4 °F 61% 29.85 in 10.0 mi SW 10.4 mph - N/A   Scattered Clouds
2:55 PM 49.1 °F - 36.0 °F 61% 29.86 in 10.0 mi SW 11.5 mph - N/A   Scattered Clouds
3:15 PM 48.9 °F - 35.4 °F 60% 29.86 in 10.0 mi SW 11.5 mph - N/A   Scattered Clouds
3:35 PM 49.1 °F - 34.2 °F 56% 29.86 in 10.0 mi SW 10.4 mph - N/A   Clear
3:55 PM 49.1 °F - 33.6 °F 55% 29.86 in 10.0 mi SW 11.5 mph - N/A   Clear
4:15 PM 49.1 °F - 33.6 °F 55% 29.85 in 10.0 mi SW 11.5 mph - N/A   Clear
4:35 PM 48.4 °F - 34.5 °F 59% 29.86 in 10.0 mi SW 8.1 mph - N/A   Clear
4:55 PM 47.8 °F - 34.7 °F 60% 29.86 in 10.0 mi SW 8.1 mph - N/A   Clear
5:15 PM 47.3 °F - 32.7 °F 57% 29.86 in 10.0 mi SW 8.1 mph - N/A   Clear
5:35 PM 44.8 °F 42.4 °F 32.7 °F 63% 29.86 in 10.0 mi South 4.6 mph - N/A   Clear
5:55 PM 43.5 °F 40.9 °F 34.0 °F 69% 29.87 in 10.0 mi South 4.6 mph - N/A   Clear
6:15 PM 40.8 °F 36.2 °F 34.7 °F 79% 29.87 in 10.0 mi South 6.9 mph - N/A   Clear
6:35 PM 40.5 °F 35.8 °F 34.2 °F 78% 29.88 in 10.0 mi South 6.9 mph - N/A   Clear
6:55 PM 40.3 °F 34.4 °F 34.7 °F 80% 29.88 in 10.0 mi South 9.2 mph - N/A   Clear
7:15 PM 42.8 °F 36.2 °F 35.8 °F 76% 29.89 in 10.0 mi SSW 12.7 mph - N/A   Clear
7:35 PM 43.0 °F 36.4 °F 36.1 °F 77% 29.89 in 10.0 mi SSW 12.7 mph - N/A   Clear
7:55 PM 42.1 °F 35.7 °F 36.1 °F 79% 29.89 in 10.0 mi SSW 11.5 mph - N/A   Clear
8:15 PM 41.5 °F 35.4 °F 36.1 °F 81% 29.89 in 10.0 mi SSW 10.4 mph - N/A   Clear
8:35 PM 41.2 °F 34.5 °F 36.1 °F 82% 29.89 in 10.0 mi SSW 11.5 mph - N/A   Clear
8:55 PM 40.6 °F 34.3 °F 36.1 °F 84% 29.90 in 10.0 mi SSW 10.4 mph - N/A   Clear
9:15 PM 39.6 °F 33.5 °F 36.1 °F 88% 29.90 in 10.0 mi South 9.2 mph - N/A   Clear
9:35 PM 40.1 °F 33.2 °F 36.5 °F 87% 29.90 in 10.0 mi SSW 11.5 mph - N/A   Clear
9:55 PM 40.1 °F 33.6 °F 36.5 °F 87% 29.90 in 10.0 mi South 10.4 mph - N/A   Clear
10:15 PM 39.6 °F 33.5 °F 36.5 °F 89% 29.90 in 10.0 mi SSW 9.2 mph - N/A   Clear
10:35 PM 39.9 °F 33.4 °F 36.7 °F 88% 29.91 in 10.0 mi SSW 10.4 mph - N/A   Clear
10:55 PM 40.1 °F 33.6 °F 36.9 °F 88% 29.91 in 10.0 mi SSW 10.4 mph - N/A   Clear
11:15 PM 40.1 °F 33.6 °F 37.2 °F 89% 29.91 in 10.0 mi SSW 10.4 mph - N/A   Clear
11:35 PM 40.1 °F 32.7 °F 37.4 °F 90% 29.91 in 10.0 mi SSW 12.7 mph - N/A   Clear
11:55 PM 40.3 °F 33.4 °F 37.8 °F 91% 29.91 in 10.0 mi SSW 11.5 mph - N/A   Clear